Zurück zum Katalog

STARLINK-31106

AktivKommunikationVLEO
NORAD 58689·PAYLOAD·🇺🇸 United States

Gestartet Dec 29, 2023 von Cape Canaveral Space Force Station

Loading…

Nächste Überflüge (nächste 24 Stunden)

TLE

AktuellSource: CelesTrak SupGP

Epoche: Sep 15, 2026, 02:36 UTC

1 58689C 23211Y   26258.10881944  .00020798  00000+0  75327-3 0  2583
2 58689  42.9995  95.5415 0001487 269.3678  94.6464 15.27569447    10

Verfolge STARLINK-31106 in Echtzeit mit AllMySat

Download on the App Store